Regional Weather Roundup
Issued by NWS

Home | Current Version | Previous Version | Text Only | Print | Product List | Glossary On
Versions: 1 2 3 4 5 6 7 8 9 10 11 12 13 14 15 16 17 18 19 20 21 22 23 24 25 26 27 28 29 30 31 32 33 34 35 36 37 38 39 40 41 42 43 44 45 46 47 48 49 50
000
ASUS43 KOAX 261210
RWRNE

WEATHER ROUNDUP FOR NEBRASKA
NATIONAL WEATHER SERVICE OMAHA NE
600 AM CST MON JAN 26 2015

NOTES: SATELLITE DATA IS BEING USED TO AUGMENT CLOUD COVER ABOVE
       12000 FEET.
       "FAIR" INDICATES FEW OR NO CLOUDS BELOW 12,000 FEET WITH NO
       SIGNIFICANT WEATHER AND/OR OBSTRUCTIONS TO VISIBILITY.

  * THESE STATIONS DO NOT REPORT WEATHER SUCH AS RAIN...SNOW OR FOG.

NEZ001>004-019>022-054>056-261300-
NEBRASKA PANHANDLE

CITY           SKY/WX    TMP DP  RH WIND       PRES   REMARKS
SCOTTSBLUFF    PTCLDY    38  30  73 W7        30.12R WCI  33
6HR MIN TEMP:  32; 6HR MAX TEMP:  40;

ALLIANCE       PTCLDY    36  30  79 W12       30.07R WCI  28
6HR MIN TEMP:  34; 6HR MAX TEMP:  41;

CHADRON        CLEAR     39  30  70 W13       30.07S WCI  31
6HR MIN TEMP:  37; 6HR MAX TEMP:  46;

KIMBALL        PTCLDY    43  29  56 W20       30.13S
SIDNEY         CLEAR     39  29  67 W13       30.13R WCI  31
6HR MIN TEMP:  39; 6HR MAX TEMP:  43;

$$

NEZ057>060-069>072-079>082-261300-
SOUTHWEST NEBRASKA

CITY           SKY/WX    TMP DP  RH WIND       PRES   REMARKS
NORTH PLATTE   PTCLDY    28  26  92 NW7       30.01F WCI  21
6HR MIN TEMP:  27; 6HR MAX TEMP:  35;

IMPERIAL       CLEAR     42  30  62 NW14      30.07R
6HR MIN TEMP:  40; 6HR MAX TEMP:  43;

LEXINGTON      CLEAR     37  32  81 NW10      29.99S WCI  30
MCCOOK         PTCLDY    38  30  73 W13       30.03S WCI  30
6HR MIN TEMP:  34; 6HR MAX TEMP:  40;

OGALLALA       PTCLDY    43  32  64 W8G16     30.06S
$$

NEZ005>010-023>029-035>040-094-261300-
NORTH CENTRAL NEBRASKA

CITY           SKY/WX    TMP DP  RH WIND       PRES   REMARKS
VALENTINE      CLEAR     36  31  82 W13       29.96R WCI  27
6HR MIN TEMP:  30; 6HR MAX TEMP:  37;

AINSWORTH      CLEAR     38  32  78 W12       29.94S WCI  31
BROKEN BOW     CLEAR     44  32  62 NW20      29.94S
6HR MIN TEMP:  32; 6HR MAX TEMP:  45;

O`NEILL        CLEAR     42  35  75 W16G22    29.87S
ORD            CLEAR     26  23  88 NW3       29.91S
6HR MIN TEMP:  23; 6HR MAX TEMP:  35;

THEDFORD       CLEAR     40  32  74 W9        29.99R WCI  33
$$

NEZ041-046>049-061>064-073>077-083>087-261300-
SOUTH CENTRAL NEBRASKA

CITY           SKY/WX    TMP DP  RH WIND       PRES   REMARKS
GRAND ISLAND   CLEAR     33  27  78 W12       29.92F WCI  24
6HR MIN TEMP:  30; 6HR MAX TEMP:  34;

AURORA         CLEAR     29  26  88 W7        29.91F WCI  22
HASTINGS       CLEAR     34  27  75 W9        29.92F WCI  27
6HR MIN TEMP:  29; 6HR MAX TEMP:  34;

HEBRON         CLEAR     32  26  80 SW9       29.95F WCI  24
HOLDREGE       CLEAR     35  28  76 NW8       29.97S WCI  28
KEARNEY *      CLEAR     37  28  70 W10       29.95S WCI  30
YORK           CLEAR     32  27  80 W12       29.90F WCI  23
$$

NEZ011>018-030>034-042>045-261300-
NORTHEAST NEBRASKA

CITY           SKY/WX    TMP DP  RH WIND       PRES   REMARKS
NORFOLK        PTCLDY    35  29  78 W12       29.84F WCI  27
6HR MIN TEMP:  33; 6HR MAX TEMP:  37;

ALBION         CLEAR     31  27  83 NW5       29.88F WCI  26
BLAIR          CLEAR     33  29  86 SW13      29.87F WCI  24
COLUMBUS *     CLEAR     34  25  69 W10       29.90S WCI  26
FREMONT        CLEAR     33  28  83 SW7       29.88F WCI  27
TEKAMAH        CLEAR     31  28  89 S9        29.87F WCI  23
6HR MIN TEMP:  27; 6HR MAX TEMP:  31;

WAYNE          CLEAR     33  29  87 SW5       29.84S WCI  28
$$

NEZ050>053-065>068-078-088>093-261300-
SOUTHEAST NEBRASKA

CITY           SKY/WX    TMP DP  RH WIND       PRES   REMARKS
LINCOLN        CLEAR     30  27  88 S5        29.93F WCI  25
6HR MIN TEMP:  28; 6HR MAX TEMP:  33;

OMAHA EPPLEY   CLEAR     27  25  92 SE9       29.91F WCI  18
6HR MIN TEMP:  26; 6HR MAX TEMP:  31;

BEATRICE       CLEAR     30  28  92 SW5       29.95S WCI  25
FALLS CITY     CLEAR     26  23  88 S6        29.97F WCI  19
6HR MIN TEMP:  24; 6HR MAX TEMP:  31;

NEBRASKA CITY  CLEAR     29  28  95 SW12      29.93F WCI  19
PLATTSMOUTH    CLEAR     28  25  91 S5        29.91F WCI  22
$$

NEZ044-045-051>053-067-261300-
OMAHA AREA

CITY           SKY/WX    TMP DP  RH WIND       PRES   REMARKS
OMAHA EPPLEY   CLEAR     27  25  92 SE9       29.91F WCI  18
6HR MIN TEMP:  26; 6HR MAX TEMP:  31;

BLAIR          CLEAR     33  29  86 SW13      29.87F WCI  24
FREMONT        CLEAR     33  28  83 SW7       29.88F WCI  27
MILLARD        CLEAR     28  27  94 SE3       29.91F
OFFUTT AFB     CLEAR     22  21  94 SE6       29.91F WCI  15
PLATTSMOUTH    CLEAR     28  25  91 S5        29.91F WCI  22
WAHOO          FAIR      28  24  85 CALM      29.89F
$$


USA.gov is the U.S. government's official web portal to all federal, state and local government web resources and services.